Starlink 1624

operational
NORAD ID: 46130 Int'l Des: 2020-057 Owner: SPXS Country: US Constellation: starlink
LEOCIRCULARSTARLINK_TYPE

Über Starlink 1624

Beschreibung wird geladen...

Live-Position

3D-Globus wird geladen...

Nächste Überflüge

Höhenverlauf

Altitude vs Time

uPlot chart will show altitude changes over time

Zweizeiliger Elementsatz

1 46130U 20057P 25354.91130298 .00096979 00000-0 17643-2 0 9993
2 46130 53.0511 254.5431 0013384 98.6682 261.5842 15.48658009296228
Epoch: 20. Dez. 2025 • Age: 7 hours

Aktueller Status

Höhe 416.8 km
Geschwindigkeit 7.67 km/s
Subsatellitenpunkt 46.69°N, 137.68°W
Startdatum 18. Aug. 2020
Alter 5.3 years
Typ internet

Technische Details

Klassifizierung Payload
Masse 260.00 kg
Trockenmasse 248.00 kg
Gesamtmasse 260.00 kg
Länge 0.20 m
Durchmesser 2.80 m
Spannweite 9.00 m
Form Box + pan
Hersteller SPXS
Bus-Typ Starlink
Phasenstatus In Orbit
Besitzer/Staat SPXS/US

Große Konstellationen

Loading constellations...